GEFSMW_850_meantemp_096.txt.gz
Temperature
17 17 18 17 17 17 16 15 15 14 14 13 12 11 11 10 10 10 9 9 9 9 9 9 9 8 8 8 7 7 7 7 7 7 7 7 7 7 7 7 6 6 6
16 17 17 17 17 16 16 15 15 14 14 13 12 12 11 10 10 10 9 9 9 9 9 9 8 8 8 8 7 7 7 6 6 6 5 6 6 6 6 6 6 6 5
16 16 17 17 17 16 16 15 15 14 14 13 12 12 11 10 10 10 9 9 9 9 9 9 8 8 8 7 7 7 7 6 6 6 5 5 5 5 5 5 5 5 4
15 14 15 16 16 16 16 15 15 14 14 13 12 12 11 11 10 10 10 9 9 9 9 9 8 8 8 7 7 7 6 6 5 5 5 4 4 3 3 4 4 3 3
14 14 15 15 16 15 15 15 14 14 13 13 12 12 11 10 10 10 10 9 9 9 9 9 8 8 7 7 7 6 6 6 5 5 4 4 3 3 2 2 3 3 2
13 13 13 14 15 15 14 14 14 13 13 12 12 11 11 11 10 10 10 10 9 9 9 8 8 8 7 7 6 6 6 6 5 5 4 3 3 2 1 1 2 2 2
12 12 13 14 14 14 14 14 13 13 13 12 12 11 11 11 10 10 10 10 9 9 9 8 8 7 7 7 6 6 6 5 5 4 4 3 3 2 1 0 0 0 1
12 12 12 13 14 14 13 13 13 13 12 12 11 11 11 10 10 10 10 10 9 9 8 8 7 7 7 6 6 5 5 5 4 4 3 3 2 2 1 0 -1 -1 -0
13 12 12 13 13 13 13 13 12 12 12 12 11 11 11 10 10 10 10 9 9 8 8 8 7 7 6 6 5 5 5 4 4 3 3 2 2 1 1 0 -1 -2 -2
13 13 13 13 13 13 13 12 12 12 12 11 11 11 11 10 10 10 9 9 9 8 8 7 7 6 6 5 5 5 4 4 3 3 3 2 1 1 0 -0 -1 -2 -2
14 14 14 13 13 13 12 12 12 11 11 11 11 11 10 10 10 9 9 9 8 8 7 7 6 6 5 5 4 4 4 3 3 2 2 2 1 0 -0 -1 -1 -2 -3
14 14 14 14 13 13 13 12 12 11 11 11 11 10 10 10 9 9 9 8 8 7 7 6 6 5 5 4 4 4 3 3 2 2 1 1 1 0 -1 -1 -2 -2 -3
14 14 14 14 14 13 13 12 12 12 11 11 10 10 10 9 9 9 8 8 7 7 6 6 5 5 5 4 4 3 3 2 2 1 1 1 0 -0 -1 -2 -2 -3 -3
14 14 14 14 14 13 13 12 12 11 11 10 10 10 9 9 9 8 8 7 7 6 6 5 5 5 4 4 3 3 2 2 2 1 1 0 -0 -1 -1 -2 -3 -3 -4
14 14 14 14 14 13 13 12 12 11 11 10 10 9 9 8 8 8 7 7 6 6 5 5 4 4 4 3 3 2 2 1 1 0 0 -0 -1 -1 -2 -3 -3 -4 -4
14 14 14 14 14 14 13 12 12 11 11 10 10 9 8 8 7 7 7 6 6 5 5 4 4 3 3 3 2 2 1 0 -0 -0 -1 -1 -1 -2 -2 -3 -4 -4 -5
14 14 14 14 14 13 13 12 12 11 10 10 9 8 8 7 7 6 6 6 5 5 4 4 3 3 3 2 2 1 0 -0 -1 -1 -2 -2 -2 -3 -3 -4 -4 -5 -5
14 14 14 14 13 13 12 12 11 11 10 9 8 8 7 7 6 6 5 5 5 4 4 3 3 2 2 2 1 1 -0 -1 -1 -2 -2 -3 -3 -4 -4 -5 -5 -5 -5
14 14 14 13 13 12 12 11 11 10 9 8 8 7 7 6 6 5 5 4 4 3 3 3 2 2 1 1 1 -0 -1 -2 -2 -3 -3 -3 -4 -4 -5 -5 -5 -6 -6
13 13 13 13 12 12 11 11 10 9 8 8 7 7 6 6 5 5 4 4 3 3 2 2 2 1 1 0 -0 -1 -2 -2 -3 -3 -4 -4 -4 -5 -5 -6 -6 -6 -6
13 12 12 12 11 11 10 10 9 8 8 7 6 6 5 5 5 4 4 3 3 2 2 1 1 1 0 -0 -1 -1 -2 -3 -4 -4 -4 -5 -5 -5 -6 -6 -6 -6 -6
12 12 11 11 11 10 9 9 8 7 7 6 6 5 5 4 4 3 3 3 2 2 1 0 0 -0 -1 -1 -2 -2 -3 -4 -4 -5 -5 -5 -6 -6 -6 -6 -6 -6 -7
11 11 11 10 10 9 8 8 7 7 6 5 5 4 4 4 3 3 2 2 1 1 0 -1 -1 -1 -2 -2 -3 -3 -4 -4 -5 -5 -6 -6 -6 -6 -7 -7 -7 -7 -7
11 10 10 9 8 8 7 7 6 6 5 5 4 4 3 3 2 2 1 1 0 -0 -1 -2 -2 -3 -3 -3 -4 -5 -5 -5 -6 -6 -6 -6 -7 -7 -7 -7 -7 -8 -8
10 9 9 8 7 7 6 6 5 5 4 4 3 3 3 2 2 1 1 0 -0 -1 -2 -2 -3 -3 -4 -4 -5 -6 -6 -6 -7 -7 -7 -7 -7 -7 -8 -8 -8 -8 -9
9 8 7 7 6 6 5 5 4 4 3 3 3 2 2 1 1 0 -0 -0 -1 -1 -2 -3 -3 -4 -4 -5 -6 -6 -7 -7 -7 -7 -7 -7 -8 -8 -8 -9 -9 -9 -9

GEFSMW_850_meantemp_102.txt.gz
Temperature
21 21 20 19 18 17 17 16 15 14 13 12 12 12 11 11 11 10 10 10 10 10 10 9 9 9 9 9 8 8 8 8 8 8 8 8 8 7 7 7 7 6 6
21 20 19 19 18 17 17 16 15 15 14 13 13 12 12 11 11 11 10 10 10 10 10 10 9 9 9 9 9 8 8 8 7 7 7 7 7 7 7 7 6 6 5
20 20 19 18 17 17 16 16 15 14 14 13 12 12 11 11 11 10 10 10 10 10 10 10 9 9 9 9 9 8 8 7 7 7 6 6 6 6 6 6 5 5 5
20 19 18 17 17 16 15 15 14 14 13 13 12 12 12 11 11 11 10 10 10 10 10 9 9 9 9 9 8 8 8 7 7 6 6 5 5 4 5 5 5 5 4
19 18 17 17 16 15 15 14 14 13 13 13 12 12 12 11 11 11 10 10 10 10 10 10 9 9 9 9 8 8 8 7 7 6 6 6 5 4 3 4 5 5 4
18 17 16 16 15 14 14 14 13 13 13 12 12 12 11 11 10 10 10 10 10 10 10 10 9 9 9 8 8 8 7 7 7 6 6 5 5 4 3 3 3 4 4
17 16 15 15 14 14 13 13 13 13 12 12 12 11 11 11 11 11 10 10 10 10 10 10 9 9 9 8 8 8 7 7 6 6 5 5 4 4 3 2 2 2 3
16 15 14 14 13 13 13 13 13 13 12 12 12 11 11 10 10 10 10 10 10 10 10 9 9 9 9 8 8 7 7 7 6 6 5 5 4 4 3 2 2 1 1
16 15 14 13 13 13 13 13 13 12 12 12 12 11 11 10 10 10 10 10 10 10 10 9 9 9 8 8 7 7 7 6 6 5 5 4 4 3 3 2 1 0 -1
16 15 14 14 13 13 13 12 12 12 13 12 12 11 11 11 10 10 10 10 10 10 9 9 9 8 8 8 7 7 6 6 5 5 4 4 3 3 2 2 1 1 -0
16 15 14 14 13 13 13 12 12 12 12 12 11 11 11 10 10 10 10 10 10 9 9 9 9 8 8 7 7 6 6 5 5 4 4 4 3 2 2 1 1 0 -0
16 15 14 14 13 13 13 12 12 12 12 11 11 11 10 10 10 10 10 10 9 9 9 9 8 8 7 7 6 6 5 5 4 4 3 3 2 2 2 1 0 0 -1
16 15 14 14 13 13 13 13 12 12 12 11 11 10 10 10 10 10 9 9 9 9 9 8 8 7 7 6 6 5 5 4 4 3 3 2 2 2 1 0 -0 -1 -1
16 15 14 14 13 13 13 13 12 12 12 11 11 10 10 10 10 9 9 9 9 8 8 8 7 7 6 6 5 5 4 4 3 3 2 2 1 1 0 -0 -1 -1 -2
16 15 15 14 13 13 13 12 12 12 11 11 11 11 10 10 9 9 9 8 8 8 8 7 7 6 6 5 5 4 4 3 3 2 2 1 1 0 -0 -1 -1 -2 -2
16 15 15 14 13 13 13 12 12 11 11 11 10 10 10 9 9 9 8 8 8 7 7 7 6 6 5 5 4 4 3 2 2 2 1 1 0 -0 -1 -2 -2 -3 -3
16 15 15 14 14 13 13 12 12 11 11 10 10 9 9 9 8 8 8 7 7 7 7 6 6 5 5 4 4 3 2 2 1 1 0 -0 -1 -1 -2 -2 -3 -3 -4
16 15 15 14 14 13 12 12 11 10 10 10 9 9 8 8 8 7 7 7 7 6 6 6 5 5 4 4 3 2 2 1 1 0 -0 -1 -1 -2 -2 -3 -3 -4 -4
15 15 14 14 13 13 12 11 11 10 10 9 9 8 8 7 7 7 6 6 6 6 5 5 4 4 3 3 2 1 1 0 0 -0 -1 -2 -2 -3 -3 -4 -4 -4 -4
15 14 13 13 13 12 11 11 10 10 9 9 8 8 7 7 6 6 6 5 5 5 5 4 4 3 3 2 1 1 0 -0 -1 -1 -2 -2 -3 -3 -4 -4 -5 -5 -5
14 13 13 12 12 11 11 11 10 10 9 8 8 7 7 6 6 5 5 5 4 4 4 3 3 2 2 1 1 -0 -1 -1 -2 -2 -2 -3 -4 -4 -5 -5 -5 -5 -6
13 12 12 12 11 11 10 10 10 9 8 8 7 6 6 5 5 4 4 4 4 3 3 2 2 2 1 0 -0 -1 -1 -2 -3 -3 -3 -4 -5 -5 -5 -6 -6 -6 -6
12 11 11 11 10 10 10 9 9 8 8 7 6 6 5 5 4 4 4 3 3 3 2 2 1 1 0 -1 -1 -2 -3 -3 -4 -4 -5 -5 -5 -6 -6 -6 -6 -7 -7
11 11 11 10 10 9 9 9 8 7 7 6 5 5 4 4 4 3 3 3 2 2 1 1 0 -0 -1 -1 -2 -3 -3 -4 -5 -5 -5 -6 -6 -7 -7 -7 -7 -7 -7
11 10 10 10 9 9 8 8 7 6 6 5 5 4 4 3 3 3 2 2 1 1 0 -0 -1 -2 -2 -2 -3 -4 -4 -5 -5 -6 -6 -7 -7 -7 -7 -7 -8 -8 -8
10 10 9 9 9 8 7 7 6 6 5 5 4 4 3 3 2 2 2 1 0 -0 -1 -1 -2 -2 -3 -4 -4 -5 -5 -6 -6 -7 -7 -7 -8 -8 -8 -8 -8 -8 -9

GEFSMW_850_meantemp_108.txt.gz
Temperature
21 21 21 20 20 19 18 18 17 16 15 14 13 12 12 12 11 11 11 11 10 10 10 10 10 9 9 9 9 9 9 9 9 9 9 9 8 8 7 7 7 6 6
21 21 21 20 20 19 19 18 17 16 15 15 14 13 12 12 11 11 11 10 10 10 10 10 10 9 9 9 9 9 9 9 9 9 8 8 8 7 7 7 7 6 6
20 20 20 20 20 19 19 18 17 17 16 15 14 12 12 11 11 11 11 10 10 10 10 10 10 9 9 9 9 9 9 9 8 8 8 8 7 7 7 7 6 6 5
20 20 20 20 19 19 19 18 17 17 16 15 14 13 12 12 11 11 11 10 10 10 10 10 9 9 9 9 9 9 9 8 8 8 8 7 7 6 6 6 6 6 5
19 20 20 19 19 19 18 18 17 16 15 14 14 13 12 12 12 11 11 10 10 10 10 10 9 9 9 9 9 9 9 8 8 8 7 7 6 6 5 5 6 6 5
19 19 19 19 18 18 17 17 16 16 15 14 14 13 13 12 11 11 11 10 10 10 10 9 9 9 9 9 9 9 8 8 8 7 7 7 6 6 5 4 5 5 5
18 18 18 18 18 17 17 16 16 15 15 14 13 13 12 12 11 11 11 10 10 10 10 9 9 9 9 9 9 8 8 8 8 7 7 6 6 5 5 4 4 3 4
18 18 18 18 17 17 16 16 15 15 14 14 13 13 12 11 11 11 11 10 10 10 10 9 9 9 9 9 9 8 8 8 7 7 7 6 6 5 4 4 3 2 2
18 18 17 17 17 16 16 15 15 14 14 13 13 12 12 11 11 10 10 10 10 10 9 9 9 9 9 9 8 8 8 7 7 7 6 6 5 5 4 3 2 1 1
17 17 17 17 16 16 15 15 14 14 14 13 13 12 12 11 11 10 10 10 10 10 9 9 9 9 9 8 8 8 7 7 7 6 6 5 5 4 4 3 2 2 1
18 17 17 16 16 15 15 15 14 14 13 13 12 12 11 11 10 10 10 10 10 9 9 9 9 9 8 8 8 7 7 7 6 6 5 5 4 4 3 3 2 2 1
18 17 17 16 16 15 15 14 14 14 13 13 12 12 11 10 10 10 9 9 9 9 9 9 8 8 8 8 7 7 7 6 6 5 5 5 4 3 3 2 2 1 0
17 17 16 16 16 15 15 14 14 13 13 12 12 11 11 10 10 9 9 9 9 9 9 8 8 8 8 7 7 6 6 6 5 5 4 4 3 3 2 2 1 1 -0
17 17 17 16 16 15 15 14 14 13 13 12 12 11 11 10 10 9 9 9 9 9 8 8 8 7 7 7 6 6 6 5 5 4 4 3 3 2 2 1 0 -0 -1
17 17 17 16 16 15 15 14 14 13 12 12 12 11 11 10 9 9 9 8 8 8 8 8 7 7 7 6 6 5 5 5 4 4 3 2 2 1 1 0 -0 -1 -2
17 17 17 16 16 15 15 14 13 13 12 12 11 11 10 9 9 9 8 8 8 8 7 7 7 6 6 6 5 5 4 4 3 3 2 2 1 1 0 -1 -1 -2 -2
17 17 17 16 16 16 15 14 14 13 12 11 11 10 10 9 9 8 8 8 7 7 7 7 6 6 6 5 4 4 4 3 2 2 1 1 1 0 -0 -1 -1 -2 -2
17 17 17 16 16 15 14 14 13 12 11 11 10 10 9 9 8 8 7 7 7 7 6 6 6 5 5 4 4 3 3 2 2 1 1 0 -0 -1 -1 -2 -2 -2 -3
18 17 17 16 16 15 14 13 12 12 11 11 10 9 9 8 8 7 7 7 6 6 6 5 5 4 4 4 3 2 2 1 1 1 -0 -1 -1 -1 -2 -3 -3 -3 -4
17 17 16 15 15 14 14 13 12 12 11 10 10 9 8 8 7 7 6 6 6 5 5 4 4 4 3 3 2 2 1 1 0 -0 -1 -1 -2 -2 -3 -4 -4 -4 -5
16 16 15 15 14 14 13 13 12 11 11 10 9 8 8 7 7 6 6 5 5 4 4 4 3 3 2 2 1 1 0 -0 -1 -1 -2 -2 -3 -3 -4 -4 -5 -5 -5
15 15 15 14 14 13 13 12 11 11 10 9 9 8 7 7 6 5 5 4 4 4 3 3 3 2 2 1 1 -0 -1 -1 -2 -2 -3 -3 -4 -4 -5 -5 -6 -6 -6
15 14 14 13 13 12 12 11 11 10 9 9 8 7 7 6 5 5 4 4 3 3 2 2 2 1 1 0 -0 -1 -1 -2 -3 -3 -4 -4 -5 -6 -6 -6 -7 -7 -7
14 13 13 12 12 11 11 10 10 9 9 8 7 7 6 5 4 4 3 3 3 2 2 1 1 1 0 -0 -1 -2 -2 -3 -4 -4 -5 -5 -6 -6 -7 -7 -7 -8 -8
13 12 12 12 11 11 10 9 9 9 8 7 6 6 5 4 4 3 3 2 2 2 1 1 -0 -1 -1 -2 -2 -3 -4 -4 -5 -5 -6 -6 -7 -7 -8 -8 -8 -9 -9
12 12 11 11 11 10 9 9 8 8 7 6 6 5 4 4 3 3 2 2 1 1 0 -0 -1 -2 -2 -3 -3 -4 -5 -5 -6 -6 -7 -7 -8 -8 -9 -9 -9 -9 -9

GEFSMW_850_meantemp_114.txt.gz
Temperature
20 20 20 19 19 18 18 18 17 17 16 15 14 14 13 13 12 12 11 11 11 10 10 10 9 9 9 9 9 9 9 9 9 9 9 9 9 8 8 8 7 7 7
20 20 20 19 19 19 19 18 18 17 17 16 16 15 14 14 13 12 11 11 11 10 10 10 9 9 9 9 9 9 9 8 8 8 8 8 8 8 8 8 7 7 7
20 20 20 20 20 19 19 19 19 18 17 17 15 14 13 12 12 12 11 11 11 10 10 10 9 9 9 9 9 9 8 8 8 8 8 8 8 8 8 8 7 7 6
19 20 20 20 20 20 20 19 19 18 18 17 15 15 14 13 13 13 12 11 11 10 10 10 9 9 9 9 9 9 8 8 8 8 8 8 7 7 7 7 7 7 6
19 20 20 20 20 20 19 19 19 18 17 17 16 15 15 14 14 13 12 11 11 11 10 10 10 9 9 9 9 9 8 8 8 8 8 8 7 7 6 6 7 6 6
19 19 19 19 19 19 19 19 18 18 17 16 16 15 15 14 13 13 12 11 11 11 10 10 10 9 9 9 9 8 8 8 8 8 8 7 7 7 6 6 6 6 6
18 19 19 19 19 19 19 18 18 17 17 16 15 15 14 14 13 13 12 12 11 11 11 10 10 9 9 9 9 8 8 8 8 8 7 7 7 6 6 5 5 5 5
18 18 18 18 19 18 18 18 17 17 16 16 15 14 14 13 13 12 12 12 11 11 11 10 10 9 9 9 9 8 8 8 8 7 7 7 7 6 5 5 4 4 4
18 18 18 18 18 18 18 17 17 16 16 15 14 14 13 13 12 12 12 11 11 11 10 10 10 9 9 9 8 8 8 8 8 7 7 7 6 6 5 5 4 3 2
18 18 18 18 17 17 17 16 16 16 15 14 14 13 13 12 12 12 11 11 11 10 10 10 9 9 9 9 8 8 8 8 7 7 7 6 6 5 5 4 4 3 2
18 18 18 17 17 17 16 16 15 15 14 14 13 13 12 12 12 11 11 11 10 10 10 10 9 9 9 8 8 8 7 7 7 7 6 6 5 5 4 4 3 3 2
17 17 17 17 17 16 16 16 15 14 14 14 13 13 12 12 11 11 11 10 10 10 9 9 9 9 8 8 8 8 7 7 7 6 6 5 5 4 4 3 3 2 1
17 17 17 17 17 16 16 15 15 14 14 13 13 12 12 11 11 11 10 10 10 9 9 9 9 8 8 8 7 7 7 6 6 6 5 5 4 4 3 3 2 1 1
17 17 17 17 17 16 16 15 14 14 13 13 13 12 12 11 11 10 10 10 9 9 9 8 8 8 8 7 7 7 6 6 5 5 5 4 4 3 3 2 1 1 0
17 17 17 17 17 16 15 15 14 14 13 13 12 12 12 11 10 10 10 9 9 9 8 8 8 8 7 7 7 6 6 5 5 4 4 4 3 2 2 1 1 0 -1
17 17 17 17 17 16 16 15 14 13 13 12 12 12 11 11 10 9 9 9 8 8 8 8 8 7 7 7 6 6 5 5 4 4 4 3 2 2 1 1 0 -1 -1
18 18 18 17 17 17 16 15 14 14 13 12 12 11 11 10 10 9 9 9 8 8 8 7 7 7 6 6 6 5 5 4 4 3 3 2 2 1 1 0 -0 -1 -2
18 18 18 17 17 16 16 15 14 13 13 12 11 11 10 10 9 9 9 8 8 8 7 7 7 6 6 5 5 4 4 4 3 3 2 2 1 1 -0 -1 -1 -2 -2
18 18 18 17 17 16 16 15 14 13 13 12 11 11 10 10 9 9 8 8 7 7 7 6 6 6 5 5 4 4 3 3 2 2 1 1 0 -0 -1 -1 -2 -3 -3
17 17 17 17 17 16 15 15 14 13 13 12 11 10 10 9 9 8 8 7 7 7 6 6 5 5 4 4 3 3 3 2 2 1 1 -0 -1 -1 -2 -3 -3 -4 -4
17 17 17 17 16 16 15 15 14 13 13 12 11 10 9 9 8 8 7 7 6 6 5 5 5 4 4 3 3 2 2 1 1 0 -0 -1 -2 -2 -3 -4 -4 -5 -5
16 16 16 16 16 15 15 14 14 13 12 11 10 10 9 8 8 7 7 6 6 5 5 4 4 3 3 2 2 2 1 0 -0 -1 -1 -2 -3 -3 -4 -5 -5 -6 -6
15 16 16 15 15 15 14 14 13 12 12 11 10 9 8 8 7 7 6 6 5 5 4 4 3 3 2 2 1 1 0 -0 -1 -2 -2 -3 -4 -4 -5 -5 -6 -6 -7
15 15 15 15 14 14 13 13 13 12 11 10 9 9 8 7 7 6 5 5 5 4 4 3 3 2 1 1 0 -0 -1 -1 -2 -3 -3 -4 -4 -5 -6 -6 -7 -7 -8
14 14 14 14 14 13 13 12 12 11 10 9 9 8 7 7 6 5 5 4 4 3 3 2 2 1 1 0 -1 -1 -2 -3 -3 -4 -4 -5 -5 -6 -6 -7 -7 -8 -8
13 13 13 13 13 12 12 11 11 10 10 9 8 8 7 6 5 5 4 3 3 3 2 2 1 1 -0 -1 -2 -2 -3 -4 -4 -5 -5 -6 -6 -7 -8 -8 -8 -9 -9

GEFSMW_850_meantemp_120.txt.gz
Temperature
19 19 18 18 18 17 17 17 17 16 15 15 14 14 13 13 13 12 12 12 11 11 10 10 10 9 9 9 9 8 9 9 9 8 8 9 9 9 9 8 8 8 8
19 19 18 18 18 18 18 17 17 16 16 16 16 15 14 13 13 13 12 12 11 11 10 10 10 10 9 9 9 9 9 8 8 8 8 8 8 9 9 8 8 8 7
20 19 18 18 18 18 18 18 18 17 17 16 15 14 12 12 12 12 12 12 11 11 11 10 10 10 9 9 9 9 9 8 8 8 8 8 9 8 8 8 8 8 7
19 19 19 18 19 19 19 18 18 17 17 16 15 14 13 13 14 14 13 13 12 11 11 10 10 10 10 9 9 9 9 8 8 8 8 8 8 7 7 7 8 7 7
18 19 19 18 19 19 19 19 18 17 16 16 15 15 14 14 14 13 13 12 12 11 11 10 10 10 10 9 9 9 9 9 8 8 8 8 8 8 7 7 7 7 7
18 18 18 18 19 19 19 19 18 17 16 16 15 15 15 14 13 13 13 12 12 11 11 11 10 10 10 9 9 9 9 9 8 8 8 8 8 7 7 6 6 6 6
17 17 18 18 18 18 19 18 18 17 17 16 15 15 15 14 13 13 13 12 12 12 11 11 10 10 10 9 9 9 9 9 8 8 8 8 7 7 7 6 6 6 6
17 17 18 18 18 18 18 18 18 17 17 16 16 15 14 13 13 12 12 12 12 12 12 11 10 10 10 9 9 9 9 8 8 8 8 8 7 7 7 6 5 5 5
16 17 17 18 18 18 18 18 18 17 17 16 15 15 14 13 12 12 12 12 12 12 11 11 10 10 10 9 9 9 9 8 8 8 8 7 7 7 6 6 5 4 4
16 16 17 17 17 17 18 18 17 17 17 16 15 14 14 13 12 12 11 11 11 11 11 11 10 10 10 9 9 9 9 8 8 8 7 7 7 6 6 5 5 4 4
16 16 17 17 17 17 17 17 17 16 16 15 14 14 13 12 12 11 11 11 11 11 11 11 10 10 10 9 9 9 8 8 8 7 7 7 6 6 5 5 5 4 4
16 16 16 16 16 16 16 16 16 16 15 15 14 13 13 12 11 11 11 11 11 10 10 10 10 10 9 9 9 9 8 8 7 7 7 6 6 5 5 4 4 4 3
15 15 16 16 16 16 16 16 15 15 15 14 14 13 12 12 11 11 11 10 10 10 10 10 10 9 9 9 9 8 8 8 7 7 6 6 5 5 4 4 3 3 2
14 15 15 16 16 16 16 15 15 15 14 14 13 13 12 12 11 11 10 10 10 10 10 10 9 9 9 9 8 8 8 7 7 6 6 5 5 4 4 3 3 2 2
14 14 15 15 15 15 15 15 15 14 14 13 13 13 12 11 11 11 10 10 10 10 9 9 9 9 8 8 8 8 7 7 6 6 5 5 4 4 3 3 2 2 1
14 14 15 15 15 15 15 15 15 14 14 13 13 12 12 11 11 10 10 10 9 9 9 9 8 8 8 8 7 7 7 6 6 5 5 4 4 3 3 2 2 1 0
14 14 15 15 16 16 16 15 15 14 14 13 12 12 11 11 11 10 10 9 9 9 8 8 8 8 7 7 7 6 6 6 5 5 4 4 3 3 2 1 1 0 -0
15 15 15 15 16 16 16 15 15 14 14 13 12 12 11 11 10 10 9 9 9 8 8 8 7 7 7 7 6 6 5 5 4 4 3 3 2 2 1 1 -0 -1 -1
16 16 16 16 16 16 15 15 14 14 13 13 12 12 11 11 10 10 9 9 8 8 7 7 7 7 6 6 6 5 5 4 4 3 3 2 1 1 0 -0 -1 -2 -2
15 15 16 16 16 15 15 15 14 14 14 13 12 12 11 11 10 9 9 8 8 7 7 7 6 6 6 5 5 5 4 3 3 2 2 1 1 -0 -1 -1 -2 -3 -3
15 15 15 15 16 15 15 15 14 14 14 13 12 11 11 10 9 9 8 8 7 7 7 6 6 5 5 5 4 4 3 3 2 2 1 0 -0 -1 -2 -2 -3 -4 -4
14 15 15 15 15 15 15 15 14 14 13 12 12 11 10 10 9 8 8 7 7 6 6 6 5 5 4 4 4 3 2 2 1 1 0 -1 -1 -2 -2 -3 -4 -4 -5
13 14 14 14 15 15 15 15 14 14 13 12 11 10 10 9 8 8 8 7 6 6 6 5 5 4 4 3 3 2 2 1 1 -0 -1 -1 -2 -3 -3 -4 -4 -5 -6
12 13 13 14 14 14 14 14 14 13 12 11 11 10 9 8 8 7 7 7 6 6 5 5 4 4 3 3 2 1 1 0 -0 -1 -2 -2 -3 -3 -4 -4 -5 -6 -6
11 12 13 13 14 14 13 13 13 13 12 11 10 9 9 8 7 7 6 6 6 5 5 4 4 3 3 2 2 1 0 -0 -1 -2 -2 -3 -4 -4 -5 -5 -6 -7 -7
11 11 12 13 13 13 13 13 12 12 12 11 10 9 8 8 7 7 6 5 5 4 4 4 3 3 2 2 1 0 -0 -1 -2 -2 -3 -4 -5 -5 -6 -6 -7 -7 -8

GEFSMW_850_meantemp_126.txt.gz
Temperature
21 21 20 20 19 18 17 16 16 15 14 14 13 13 13 13 12 12 12 12 12 11 11 11 10 10 10 10 10 10 9 9 9 9 9 9 9 9 9 9 9 9 9
21 21 21 20 19 18 17 16 16 16 15 15 15 15 14 13 13 12 12 12 12 12 11 11 11 10 10 10 10 10 9 9 9 9 9 9 9 9 9 9 9 9 9
21 21 21 20 19 18 17 17 16 16 16 15 14 13 13 12 12 12 12 12 12 12 11 11 11 10 10 10 10 10 9 9 9 9 9 8 8 9 9 9 9 9 9
21 21 21 20 19 19 18 17 16 16 16 15 14 14 13 13 14 14 13 13 12 12 11 11 11 10 10 10 10 10 9 9 9 9 9 9 9 8 8 8 8 8 8
21 21 21 20 20 19 18 17 16 16 15 15 15 14 14 14 14 13 13 13 12 12 11 11 11 10 10 10 10 10 9 9 9 9 9 9 8 8 8 8 8 8 8
21 21 21 20 20 19 18 17 16 16 15 15 14 14 14 14 13 13 13 12 12 12 11 11 11 11 10 10 10 10 9 9 9 9 9 9 8 8 8 8 7 7 7
20 20 20 20 19 19 18 18 17 16 15 14 14 14 14 13 13 13 13 13 12 12 12 12 11 11 10 10 10 10 9 9 9 9 9 8 8 8 8 7 7 7 7
20 20 20 19 19 19 18 18 17 16 15 15 14 14 13 13 13 13 13 13 13 13 13 12 11 11 10 10 10 9 9 9 9 9 8 8 8 8 7 7 7 6 6
19 19 19 19 19 18 18 18 17 16 16 15 14 13 13 13 12 12 12 12 12 12 12 12 11 11 10 10 10 9 9 9 9 9 8 8 8 7 7 7 6 6 5
18 18 18 18 18 18 18 17 17 16 16 15 14 13 13 12 12 12 12 12 12 12 12 11 11 11 10 10 9 9 9 9 9 8 8 8 8 7 7 6 6 5 5
18 17 17 17 17 17 17 17 16 16 15 15 14 13 13 12 12 12 11 11 11 11 11 11 11 10 10 10 9 9 9 9 9 8 8 8 7 7 6 6 6 5 4
17 17 16 16 16 16 16 16 16 15 15 14 14 13 12 12 12 11 11 11 11 11 11 11 10 10 10 9 9 9 9 9 8 8 8 7 7 7 6 6 5 5 4
16 16 15 15 15 15 16 15 15 15 15 14 14 13 12 12 12 11 11 11 11 11 11 10 10 10 10 9 9 9 9 8 8 8 7 7 7 6 6 5 5 4 3
15 15 14 14 15 15 15 15 14 15 14 14 13 13 12 12 12 11 11 11 11 11 10 10 10 10 9 9 9 9 8 8 8 7 7 7 6 6 5 4 4 3 3
14 14 13 13 14 14 14 14 14 14 14 14 13 13 12 12 12 11 11 11 10 10 10 10 9 9 9 9 9 8 8 8 7 7 7 6 6 5 5 4 3 3 2
14 13 13 13 13 14 14 14 14 14 14 13 13 13 12 12 11 11 11 10 10 10 10 9 9 9 9 9 8 8 8 7 7 7 6 6 5 5 4 4 3 2 1
13 13 13 13 14 14 14 14 14 14 13 13 13 12 12 12 11 11 10 10 10 9 9 9 9 9 8 8 8 8 7 7 7 6 6 5 5 4 4 3 2 1 1
13 13 13 13 13 14 14 14 14 14 13 13 13 13 12 11 11 11 10 10 9 9 9 9 9 8 8 8 7 7 7 6 6 6 5 5 4 4 3 2 2 1 -0
13 13 13 13 13 13 14 14 13 13 13 13 13 12 12 11 11 10 10 10 9 9 9 9 8 8 8 7 7 7 6 6 5 5 4 4 3 3 2 1 1 0 -1
13 13 13 13 13 13 13 13 13 13 13 13 13 12 12 11 11 10 10 9 9 9 8 8 8 8 7 7 7 6 6 6 5 4 4 3 2 2 1 1 0 -1 -1
12 13 13 13 13 13 13 13 13 13 13 13 12 12 12 11 11 10 10 9 9 8 8 8 7 7 7 6 6 6 5 5 4 4 3 2 2 1 0 -0 -1 -2 -3
12 12 12 12 12 13 13 13 13 13 13 12 12 12 11 11 10 10 9 9 8 8 8 7 7 7 6 6 5 5 5 4 4 3 2 2 1 0 -0 -1 -2 -3 -3
11 12 12 12 12 12 13 13 13 13 12 12 12 11 11 10 10 10 9 9 8 8 8 7 7 6 6 5 5 4 4 3 3 2 2 1 0 -0 -1 -2 -3 -3 -4
10 11 11 11 11 11 12 13 13 12 12 12 11 11 11 10 9 9 9 8 8 8 7 7 6 6 5 5 4 4 3 3 2 2 1 0 -1 -1 -2 -3 -3 -4 -4
10 10 10 11 11 11 11 12 12 12 11 11 11 10 10 10 9 8 8 8 8 8 8 7 7 6 6 5 4 4 3 2 2 1 0 -0 -1 -2 -3 -3 -4 -4 -5
9 9 10 10 10 10 11 11 11 11 11 11 10 10 9 9 8 8 7 7 7 6 6 6 6 5 5 4 4 3 2 2 1 0 -0 -1 -2 -2 -3 -4 -4 -5 -5

GEFSMW_850_meantemp_132.txt.gz
Temperature
18 18 17 17 17 16 16 15 15 15 14 14 14 14 13 13 13 13 13 12 12 12 12 11 11 11 11 10 10 10 9 9 9 9 9 9 9 9 9 9 9 9 9
17 17 17 17 17 17 16 16 16 15 15 15 15 15 14 14 13 13 13 12 12 12 12 11 11 11 10 10 10 10 10 9 9 9 9 9 9 9 9 9 9 9 9
17 17 17 17 17 17 17 16 16 16 16 15 15 14 13 12 12 12 13 13 12 12 12 12 11 11 11 10 10 10 10 10 9 9 9 9 9 9 9 9 9 9 9
17 17 17 17 17 18 18 17 17 17 16 15 15 14 14 14 14 14 14 13 12 12 12 12 11 11 11 10 10 10 10 10 9 9 9 9 9 9 8 9 9 9 8
17 17 18 18 18 18 18 18 17 17 16 16 15 15 15 15 15 14 13 13 12 12 12 11 11 11 11 11 10 10 10 10 9 9 9 9 8 8 8 8 9 9 8
17 17 18 18 18 18 18 18 17 17 17 16 15 15 15 15 14 14 13 13 12 12 12 11 11 11 11 11 10 10 10 10 9 9 9 9 9 9 8 8 8 8 8
17 17 18 18 18 18 18 18 17 17 17 16 16 16 15 15 15 15 14 13 13 12 12 12 11 11 11 11 10 10 10 9 9 9 9 9 8 8 8 8 8 8 7
16 17 17 18 18 18 18 18 17 17 17 16 16 16 15 15 14 14 14 14 14 14 13 12 12 11 11 11 10 10 10 9 9 9 9 9 8 8 8 8 7 7 7
16 17 17 18 18 18 18 18 17 17 17 17 16 16 15 15 15 14 14 13 13 13 12 12 12 11 11 10 10 10 9 9 9 9 8 8 8 8 8 7 7 6 6
16 16 17 17 18 18 18 18 17 17 17 17 16 16 16 15 15 14 14 13 13 12 12 12 11 11 11 10 10 10 9 9 9 9 8 8 8 8 7 7 7 6 5
15 16 17 17 17 18 18 17 17 17 17 17 16 16 15 15 14 14 13 13 12 12 12 11 11 11 10 10 10 10 9 9 9 8 8 8 8 7 7 7 6 6 5
15 16 16 17 17 17 17 17 17 16 16 16 16 16 15 15 14 14 13 13 12 12 11 11 11 11 10 10 10 9 9 9 9 8 8 8 8 7 7 6 6 5 5
14 15 15 16 16 16 16 16 16 16 16 16 15 15 15 14 14 13 13 12 12 11 11 11 11 10 10 10 10 9 9 9 8 8 8 8 7 7 6 6 6 5 4
12 14 14 15 15 15 16 16 16 16 15 15 15 14 14 14 14 13 12 12 12 11 11 11 10 10 10 10 9 9 9 8 8 8 8 7 7 6 6 5 5 5 4
11 12 13 14 14 14 15 15 15 15 15 15 14 14 14 14 13 12 12 11 11 11 11 10 10 10 10 9 9 9 8 8 8 8 7 7 6 6 5 5 5 4 3
10 11 12 12 13 14 14 14 14 14 14 14 14 14 13 13 12 12 12 11 11 11 10 10 10 10 9 9 9 8 8 8 7 7 7 7 6 6 5 5 4 3 3
9 10 11 12 13 13 14 14 14 14 14 14 13 13 13 12 12 12 11 11 11 10 10 10 10 9 9 9 8 8 8 7 7 7 7 6 6 5 4 4 3 3 2
8 9 10 11 12 12 13 13 13 13 13 13 13 13 12 12 11 11 11 11 11 10 10 10 10 9 9 9 8 8 7 7 7 6 6 6 5 4 4 3 3 2 1
8 9 10 11 11 12 12 12 12 12 12 12 12 12 12 12 11 11 11 11 10 10 10 9 9 9 9 8 8 7 7 7 6 6 5 5 4 4 3 3 2 2 1
8 9 10 10 11 11 11 12 12 12 12 12 12 12 12 11 11 11 11 10 10 10 9 9 9 9 8 8 7 7 7 7 6 5 5 4 4 3 3 2 2 1 0
7 8 9 10 10 11 11 11 11 11 11 11 11 11 11 11 11 11 10 10 10 9 9 9 8 8 8 7 7 7 7 6 6 5 4 4 3 2 2 1 1 0 -1
7 8 8 9 10 10 10 10 11 11 11 11 11 11 11 11 10 10 10 10 9 9 9 8 8 7 7 7 7 6 6 6 5 5 4 3 3 2 1 1 -0 -1 -1
6 7 8 8 9 9 10 10 10 10 10 11 11 11 10 10 10 10 10 9 9 9 8 8 8 7 7 6 6 6 5 5 4 4 3 3 2 1 1 0 -1 -1 -2
6 7 7 8 8 9 9 10 10 10 10 10 10 10 10 10 10 9 9 9 9 8 8 8 8 7 6 6 6 5 5 4 4 3 3 2 1 1 0 -1 -1 -2 -2
6 6 7 7 8 8 9 9 9 9 10 10 10 10 10 10 9 9 9 9 9 9 9 9 8 8 7 6 6 6 5 4 4 3 2 2 1 0 -0 -1 -2 -2 -3
5 6 6 7 7 8 8 9 9 9 9 9 9 9 9 9 9 9 8 8 8 8 8 8 8 7 7 6 6 5 4 4 3 3 2 1 1 -0 -1 -1 -2 -3 -3

GEFSMW_850_meantemp_138.txt.gz
Temperature
14 14 14 14 14 13 13 13 13 13 13 12 12 12 12 12 12 12 12 12 12 11 11 11 10 10 10 10 9 9 9 9 9 9 9 9 9 9 9 9 9 9 9
13 13 14 14 14 14 13 13 14 13 13 13 13 13 13 12 12 12 12 12 12 11 11 11 11 10 10 10 9 9 9 9 9 8 8 9 9 9 9 9 9 9 9
13 13 14 14 14 14 14 14 14 14 14 14 13 12 12 12 12 12 12 12 12 12 11 11 11 10 10 10 10 9 9 9 9 8 8 9 9 9 9 9 9 9 9
13 13 13 14 14 14 14 14 14 14 14 14 13 13 13 13 14 13 13 13 12 12 11 11 11 10 10 10 10 10 9 9 9 9 8 8 9 9 9 9 9 9 9
13 13 14 14 14 15 14 15 15 15 14 14 14 14 14 14 14 13 13 13 12 12 12 11 11 11 10 10 10 10 9 9 9 9 8 8 8 8 8 9 9 9 9
13 13 14 14 14 14 14 14 14 15 15 14 14 14 14 14 14 14 13 13 13 12 12 12 11 11 11 10 10 10 9 9 9 9 9 8 8 8 8 8 8 8 8
13 13 13 13 14 14 14 14 14 14 15 14 14 15 15 15 15 14 14 14 13 13 13 12 12 11 11 11 10 10 9 9 9 9 9 8 8 8 8 8 8 7 8
12 12 13 13 14 14 14 15 15 15 15 15 15 15 15 15 14 15 14 14 14 14 14 13 12 12 11 11 10 10 9 9 9 9 9 8 8 8 8 7 7 7 7
11 12 12 13 14 14 14 15 15 15 15 15 15 15 15 15 15 15 14 14 14 14 14 13 13 12 11 11 10 10 10 9 9 9 9 8 8 8 8 7 7 6 6
11 11 12 12 13 14 14 15 15 16 16 16 16 15 15 15 15 15 14 14 14 14 13 13 12 12 11 11 10 10 10 9 9 9 9 8 8 8 7 7 7 6 6
10 10 11 12 13 13 14 14 15 15 15 16 16 15 15 15 15 15 14 14 14 14 13 13 12 12 11 11 10 10 10 10 9 9 9 8 8 8 7 7 7 6 6
9 10 10 11 12 13 13 14 14 15 15 16 16 15 15 15 15 15 15 14 14 13 13 13 12 12 11 11 11 10 10 10 9 9 9 8 8 7 7 7 6 6 6
8 9 10 11 11 12 13 13 14 14 15 15 15 15 15 14 15 15 14 14 13 13 12 12 12 11 11 11 11 10 10 10 9 9 8 8 8 7 7 7 6 6 5
8 8 9 10 10 11 12 13 13 14 14 14 14 14 14 15 15 14 14 13 13 12 12 12 12 11 11 11 10 10 10 9 9 9 8 8 8 7 7 7 6 6 5
7 7 8 9 9 10 11 12 13 13 13 14 14 14 14 14 14 13 13 13 12 12 12 11 11 11 11 10 10 10 9 9 9 8 8 8 7 7 7 6 6 5 5
6 6 7 8 9 10 11 12 12 13 13 13 13 13 13 13 13 13 13 12 12 12 11 11 11 10 10 10 10 10 9 9 8 8 8 7 7 7 6 6 5 5 4
5 6 6 7 8 9 10 11 12 12 12 13 13 13 13 12 12 12 12 12 11 11 11 11 10 10 10 10 10 9 9 9 8 8 8 7 7 6 6 5 5 4 3
5 5 6 7 8 9 10 10 11 12 12 12 12 12 12 12 12 12 11 11 11 11 11 10 10 10 10 10 9 9 9 8 8 8 7 7 6 6 5 5 4 4 3
5 5 6 7 7 8 9 10 10 11 11 11 12 12 12 12 12 11 11 11 11 10 10 10 10 10 10 9 9 9 8 8 8 7 7 6 6 5 5 4 4 3 3
5 5 6 6 7 8 9 9 10 10 10 11 11 12 11 11 11 11 11 11 11 11 10 10 10 10 9 9 9 8 8 8 7 7 6 6 5 5 4 4 3 3 2
5 5 6 6 6 7 8 8 9 9 10 10 10 11 11 11 11 11 11 10 10 10 10 9 9 9 9 9 9 8 8 7 7 7 6 5 5 4 4 3 3 2 1
5 5 5 6 6 7 7 8 8 9 9 9 10 10 10 10 10 10 10 10 9 9 9 9 9 9 9 8 8 8 7 7 7 6 6 5 5 4 3 3 2 1 1
5 5 5 5 6 6 7 7 7 8 8 8 9 9 9 9 10 9 9 9 9 9 9 9 8 8 8 8 8 7 7 6 6 6 5 5 4 3 3 2 2 1 0
4 5 5 5 5 6 6 6 7 7 8 8 8 8 9 9 9 9 9 9 9 9 9 8 8 8 8 8 7 7 6 6 6 5 5 4 3 3 2 2 1 0 -0
4 4 4 5 5 5 6 6 6 6 7 7 7 8 8 8 8 8 8 9 9 9 9 9 9 8 8 8 8 7 6 6 5 5 4 4 3 2 2 1 1 -0 -1
4 4 4 4 5 5 5 6 6 6 6 7 7 7 7 8 8 8 8 8 8 8 8 9 8 8 8 8 7 7 6 6 5 4 4 3 3 2 2 1 0 -0 -1

GEFSMW_850_meantemp_144.txt.gz
Temperature
13 12 12 12 12 12 12 12 12 12 12 12 12 12 12 12 12 12 12 11 11 11 10 10 10 10 10 10 9 9 9 9 9 9 9 9 9 9 9 9 9 9 9
12 12 12 12 12 12 12 12 12 12 12 12 12 12 12 12 12 12 12 11 11 11 10 10 10 10 10 10 9 9 9 9 9 8 8 9 9 9 9 9 9 9 9
12 12 12 12 12 12 12 12 12 12 12 12 12 11 11 11 11 11 12 12 11 11 11 10 10 10 10 10 10 9 9 9 9 8 9 9 10 9 9 9 9 9 9
12 11 11 12 12 12 12 12 12 12 12 12 11 11 11 11 12 12 12 12 11 11 11 11 10 10 10 10 10 9 9 9 9 9 9 9 9 9 9 9 9 9 8
11 11 11 12 12 12 12 12 12 12 12 12 11 11 11 11 11 11 11 12 11 11 11 11 10 10 10 10 10 10 9 9 9 9 9 9 9 8 8 9 8 8 8
11 11 11 11 11 11 12 12 11 11 11 11 11 11 11 11 11 11 11 11 12 12 11 11 11 10 10 10 10 10 9 9 9 9 9 9 9 8 8 8 8 8 8
10 10 10 11 11 11 11 11 11 11 11 11 11 12 12 12 12 12 12 12 12 12 12 12 11 11 11 11 10 10 10 9 9 9 9 9 8 8 8 8 8 7 7
9 9 9 10 10 10 11 11 11 11 11 11 11 12 12 12 12 12 12 12 13 13 13 12 12 11 11 11 10 10 10 9 9 9 9 9 9 8 8 8 8 7 7
9 9 9 9 10 10 10 11 11 11 11 11 12 12 12 12 12 12 13 13 13 13 13 12 12 12 11 11 10 10 10 10 9 9 9 9 9 9 8 8 8 7 7
9 9 9 9 9 9 10 10 10 11 11 11 11 12 12 13 13 12 13 13 13 13 13 12 12 12 11 11 11 10 10 10 10 9 9 9 9 8 8 8 8 7 6
8 8 8 8 9 9 9 10 10 10 11 11 11 11 12 12 12 12 13 13 13 13 13 12 12 12 11 11 11 11 10 10 10 9 9 9 9 8 8 8 7 7 7
7 7 8 8 8 9 9 9 10 10 10 11 11 11 12 12 12 12 13 13 13 13 13 12 12 12 11 11 11 10 10 10 10 9 9 9 9 8 8 8 7 7 7
7 7 7 7 8 8 8 9 9 10 10 10 11 11 11 12 12 12 12 13 13 13 13 12 12 12 11 11 11 10 10 10 10 10 9 9 9 8 8 8 7 7 6
6 6 6 7 7 7 8 8 9 9 10 10 10 11 11 11 12 12 12 12 12 12 12 12 12 12 11 11 11 10 10 10 10 9 9 9 9 8 8 7 7 7 6
6 6 6 6 6 7 8 8 9 9 10 10 10 11 11 11 11 11 12 12 12 12 12 11 11 11 11 11 11 10 10 10 10 9 9 9 8 8 7 7 7 6 6
6 5 5 5 6 6 7 7 8 8 9 10 10 11 11 11 11 11 11 11 11 11 11 11 11 11 11 11 11 10 10 10 9 9 9 8 8 8 7 7 6 6 6
5 5 5 5 5 6 6 7 7 8 8 9 9 10 10 10 11 11 11 11 11 11 11 11 11 11 11 11 10 10 10 9 9 9 9 8 8 7 7 6 6 6 5
4 4 5 5 5 6 6 6 7 7 8 8 9 9 10 10 10 10 11 11 11 11 10 10 10 10 10 10 10 10 9 9 9 9 8 8 8 7 7 6 6 5 5
4 4 4 5 5 5 6 6 6 7 7 8 8 9 9 9 10 10 10 10 10 10 10 10 10 10 10 10 10 9 9 9 9 8 8 8 7 7 6 6 5 5 4
3 4 4 5 5 5 5 6 6 6 7 7 8 8 9 9 9 10 10 10 10 10 10 10 10 10 10 10 9 9 9 8 8 8 8 7 7 6 6 6 5 4 4
3 4 4 5 5 5 5 5 6 6 6 7 8 8 8 9 9 9 9 9 9 9 10 9 9 9 9 9 9 9 9 8 8 8 7 7 6 6 6 5 5 4 3
3 3 4 4 5 5 5 5 5 6 6 7 7 8 8 8 9 8 9 9 9 9 9 9 9 9 9 9 9 8 8 8 8 8 7 7 6 6 5 5 4 3 3
2 3 4 4 5 5 5 5 5 5 6 6 7 7 7 8 8 8 8 8 9 9 8 8 8 8 8 8 8 8 8 8 8 7 7 6 6 5 4 4 3 3 2
2 3 3 4 4 5 5 5 5 5 6 6 6 6 7 7 7 8 8 8 8 8 8 8 8 8 8 8 8 7 7 7 7 7 6 6 5 4 4 3 3 2 2
2 2 3 3 4 4 4 5 5 5 5 5 6 6 6 6 7 7 7 8 8 8 8 8 8 8 8 8 8 8 7 7 7 6 6 5 4 4 3 3 2 2 1
1 2 2 3 3 4 4 4 5 5 5 5 5 5 6 6 6 6 7 7 8 8 8 8 8 8 8 8 7 7 7 7 6 6 5 5 4 4 3 3 2 1 1